| time (UTC) | temp F | wind direction | speed knots | gust knots | rain 1hr in | rain 24hr in | rain mn in | humidity % | barometer mb |
| 20260505170621 | 79 | 0 | 0.0 | 13.9 | 0.00 | 0.00 | 0.00 | 50 | 829.0 |
| 20260505165620 | 77 | 221 | 5.2 | 21.7 | 0.00 | 0.00 | 0.00 | 50 | 829.0 |
| 20260505164621 | 77 | 0 | 0.0 | 10.4 | 0.00 | 0.00 | 0.00 | 53 | 829.0 |
| 20260505163223 | 78 | 221 | 2.6 | 7.0 | 0.00 | 0.00 | 0.00 | 53 | 829.0 |
| 20260505161224 | 76 | 191 | 0.9 | 8.7 | 0.00 | 0.00 | 0.00 | 56 | 829.0 |
| 20260505160223 | 76 | 0 | 0.0 | 8.7 | 0.00 | 0.00 | 0.00 | 55 | 829.0 |
| 20260505152817 | 75 | 0 | 0.0 | 6.1 | 0.00 | 0.00 | 0.00 | 56 | 829.0 |
| 20260505151817 | 74 | 0 | 0.0 | 5.2 | 0.00 | 0.00 | 0.00 | 58 | 829.0 |
| 20260505150419 | 76 | 0 | 0.0 | 3.5 | 0.00 | 0.00 | 0.00 | 55 | 829.0 |
| 20260505124213 | 64 | 226 | 4.3 | 9.6 | 0.00 | 0.00 | 0.00 | 67 | 829.0 |
| 20260505123213 | 64 | 220 | 2.6 | 9.6 | 0.00 | 0.00 | 0.00 | 68 | 829.0 |
| 20260505122213 | 63 | 197 | 1.7 | 6.1 | 0.00 | 0.00 | 0.00 | 69 | 829.0 |
| 20260505120812 | 62 | 219 | 2.6 | 5.2 | 0.00 | 0.00 | 0.00 | 70 | 829.0 |
| 20260505115815 | 62 | 227 | 2.6 | 13.0 | 0.00 | 0.00 | 0.00 | 71 | 829.0 |
| 20260505114812 | 61 | 216 | 1.7 | 3.5 | 0.00 | 0.00 | 0.00 | 73 | 829.0 |
| 20260505113812 | 61 | 211 | 2.6 | 6.1 | 0.00 | 0.00 | 0.00 | 74 | 829.0 |
| 20260505112427 | 60 | 0 | 0.0 | 3.5 | 0.00 | 0.00 | 0.00 | 76 | 829.0 |
| 20260505111427 | 59 | 187 | 1.7 | 7.0 | 0.00 | 0.00 | 0.00 | 76 | 829.0 |
| 20260505110427 | 59 | 215 | 1.7 | 5.2 | 0.00 | 0.00 | 0.00 | 77 | 829.0 |
| 20260505102026 | 57 | 0 | 0.0 | 0.9 | 0.00 | 0.00 | 0.00 | 79 | 829.0 |
| 20260505101026 | 57 | 0 | 0.0 | 0.9 | 0.00 | 0.00 | 0.00 | 80 | 829.0 |
| 20260505095619 | 57 | 0 | 0.0 | 1.7 | 0.00 | 0.00 | 0.00 | 80 | 829.0 |
| 20260505094620 | 57 | 0 | 0.0 | 0.9 | 0.00 | 0.00 | 0.00 | 80 | 829.0 |
| 20260505093619 | 57 | 0 | 0.0 | 0.9 | 0.00 | 0.00 | 0.00 | 80 | 829.0 |
| 20260505092619 | 57 | 0 | 0.0 | 0.9 | 0.00 | 0.00 | 0.00 | 80 | 829.0 |
| 20260505091222 | 57 | 0 | 0.0 | 0.9 | 0.00 | 0.00 | 0.00 | 80 | 829.0 |
| 20260505090222 | 57 | 0 | 0.0 | 0.9 | 0.00 | 0.00 | 0.00 | 81 | 829.0 |
| 20260505085223 | 57 | 0 | 0.0 | 0.0 | 0.00 | 0.00 | 0.00 | 80 | 829.0 |
| 20260505084222 | 58 | 0 | 0.0 | 0.9 | 0.00 | 0.00 | 0.00 | 80 | 829.0 |
| 20260505082816 | 58 | 0 | 0.0 | 0.9 | 0.00 | 0.00 | 0.00 | 80 | 829.0 |
| 20260505081816 | 58 | 0 | 0.0 | 0.9 | 0.00 | 0.00 | 0.00 | 80 | 829.0 |
| 20260505080815 | 58 | 0 | 0.0 | 0.9 | 0.00 | 0.00 | 0.00 | 81 | 829.0 |
| 20260505075816 | 58 | 0 | 0.0 | 0.0 | 0.00 | 0.00 | 0.00 | 80 | 829.0 |
| 20260505074418 | 58 | 0 | 0.0 | 0.9 | 0.00 | 0.00 | 0.00 | 81 | 829.0 |
| 20260505073419 | 58 | 0 | 0.0 | 0.0 | 0.00 | 0.00 | 0.00 | 81 | 829.0 |
| 20260505072419 | 58 | 0 | 0.0 | 0.0 | 0.00 | 0.00 | 0.00 | 80 | 829.0 |
| 20260505071418 | 58 | 0 | 0.0 | 0.0 | 0.00 | 0.00 | 0.00 | 80 | 829.0 |
| 20260505070016 | 58 | 0 | 0.0 | 1.7 | 0.00 | 0.00 | 0.00 | 80 | 829.0 |
| 20260505065015 | 57 | 0 | 0.0 | 1.7 | 0.00 | 0.00 | 0.00 | 81 | 829.0 |
| 20260505064016 | 57 | 0 | 0.0 | 0.0 | 0.00 | 0.00 | 0.00 | 80 | 829.0 |
| 20260505063016 | 57 | 0 | 0.0 | 0.0 | 0.00 | 0.00 | 0.00 | 79 | 829.0 |
| 20260505061615 | 56 | 0 | 0.0 | 0.0 | 0.00 | 0.00 | 0.00 | 76 | 829.0 |
| 20260505060615 | 56 | 0 | 0.0 | 0.0 | 0.00 | 0.00 | 0.00 | 76 | 829.0 |
| 20260505055614 | 56 | 0 | 0.0 | 0.0 | 0.00 | 0.00 | 0.00 | 75 | 829.0 |
| 20260505054615 | 56 | 0 | 0.0 | 0.0 | 0.00 | 0.00 | 0.00 | 75 | 829.0 |
| 20260505053218 | 56 | 0 | 0.0 | 0.0 | 0.00 | 0.00 | 0.00 | 75 | 829.0 |
| 20260505052220 | 57 | 0 | 0.0 | 0.0 | 0.00 | 0.00 | 0.00 | 75 | 829.0 |
| 20260505051218 | 57 | 0 | 0.0 | 0.0 | 0.00 | 0.00 | 0.00 | 74 | 829.0 |
| 20260505050218 | 57 | 0 | 0.0 | 0.0 | 0.00 | 0.00 | 0.00 | 73 | 829.0 |
| 20260505040405 | 58 | 0 | 0.0 | 0.0 | 0.00 | 0.00 | 0.00 | 68 | 829.0 |
| 20260505035404 | 59 | 0 | 0.0 | 0.0 | 0.00 | 0.00 | 0.00 | 66 | 829.0 |
| 20260505034404 | 59 | 0 | 0.0 | 0.0 | 0.00 | 0.00 | 0.00 | 66 | 829.0 |
| 20260505033404 | 59 | 0 | 0.0 | 0.0 | 0.00 | 0.00 | 0.00 | 65 | 829.0 |
| 20260505032030 | 59 | 0 | 0.0 | 0.0 | 0.00 | 0.00 | 0.00 | 63 | 829.0 |
| 20260505031029 | 60 | 0 | 0.0 | 0.0 | 0.00 | 0.00 | 0.00 | 62 | 829.0 |
| 20260505030029 | 60 | 0 | 0.0 | 0.0 | 0.00 | 0.00 | 0.00 | 62 | 829.0 |
| 20260505025029 | 60 | 0 | 0.0 | 0.0 | 0.00 | 0.00 | 0.00 | 61 | 829.0 |
| 20260505023632 | 60 | 0 | 0.0 | 0.0 | 0.00 | 0.00 | 0.00 | 60 | 829.0 |
| 20260505022633 | 61 | 0 | 0.0 | 0.0 | 0.00 | 0.00 | 0.00 | 60 | 829.0 |
| 20260505021632 | 61 | 0 | 0.0 | 0.0 | 0.00 | 0.00 | 0.00 | 60 | 829.0 |
| 20260505020633 | 61 | 0 | 0.0 | 0.0 | 0.00 | 0.00 | 0.00 | 59 | 829.0 |
| 20260505015235 | 62 | 0 | 0.0 | 0.0 | 0.00 | 0.00 | 0.00 | 58 | 829.0 |
| 20260505014235 | 62 | 0 | 0.0 | 0.0 | 0.00 | 0.00 | 0.00 | 57 | 829.0 |
| 20260505013236 | 63 | 0 | 0.0 | 0.0 | 0.00 | 0.00 | 0.00 | 57 | 829.0 |
| 20260505012235 | 63 | 0 | 0.0 | 0.0 | 0.00 | 0.00 | 0.00 | 55 | 829.0 |
| 20260505010831 | 64 | 0 | 0.0 | 0.0 | 0.00 | 0.00 | 0.00 | 54 | 829.0 |
| 20260505005830 | 64 | 0 | 0.0 | 0.0 | 0.00 | 0.00 | 0.00 | 53 | 829.0 |
| 20260505004830 | 65 | 0 | 0.0 | 0.0 | 0.00 | 0.00 | 0.00 | 52 | 829.0 |
| 20260505003831 | 66 | 0 | 0.0 | 0.0 | 0.00 | 0.00 | 0.00 | 51 | 829.0 |
| 20260505002429 | 67 | 0 | 0.0 | 0.0 | 0.00 | 0.00 | 0.00 | 50 | 829.0 |
| 20260505001430 | 68 | 0 | 0.0 | 0.0 | 0.00 | 0.00 | 0.00 | 49 | 829.0 |
| 20260505000429 | 69 | 0 | 0.0 | 0.0 | 0.00 | 0.00 | 0.00 | 48 | 829.0 |
| 20260504235430 | 70 | 0 | 0.0 | 0.0 | 0.00 | 0.00 | 0.00 | 46 | 829.0 |
| 20260504234027 | 71 | 0 | 0.0 | 0.0 | 0.00 | 0.00 | 0.00 | 44 | 829.0 |
| 20260504233026 | 72 | 0 | 0.0 | 0.9 | 0.00 | 0.00 | 0.00 | 45 | 829.0 |
| 20260504232027 | 73 | 0 | 0.0 | 1.7 | 0.00 | 0.00 | 0.00 | 43 | 944.6 |
| 20260504231026 | 73 | 0 | 0.0 | 0.9 | 0.00 | 0.00 | 0.00 | 42 | 944.6 |
| 20260504225632 | 73 | 0 | 0.0 | 0.9 | 0.00 | 0.00 | 0.00 | 43 | 944.6 |
| 20260504224632 | 73 | 0 | 0.0 | 0.9 | 0.00 | 0.00 | 0.00 | 43 | 944.6 |
| 20260504223632 | 72 | 0 | 0.0 | 3.5 | 0.00 | 0.00 | 0.00 | 43 | 944.6 |
| 20260504222632 | 72 | 0 | 0.0 | 10.4 | 0.00 | 0.00 | 0.00 | 41 | 944.6 |
| 20260504221311 | 74 | 213 | 1.7 | 5.2 | 0.00 | 0.00 | 0.00 | 41 | 944.6 |
| 20260504220310 | 73 | 235 | 0.9 | 7.0 | 0.00 | 0.00 | 0.00 | 40 | 944.6 |
| 20260504215311 | 72 | 0 | 0.0 | 10.4 | 0.00 | 0.00 | 0.00 | 44 | 944.6 |
| 20260504214311 | 72 | 222 | 0.9 | 8.7 | 0.00 | 0.00 | 0.00 | 41 | 944.6 |
| 20260504213311 | 73 | 0 | 0.0 | 8.7 | 0.00 | 0.00 | 0.00 | 42 | 944.6 |
| 20260504212311 | 73 | 217 | 2.6 | 9.6 | 0.00 | 0.00 | 0.00 | 42 | 944.6 |
| 20260504210911 | 73 | 212 | 1.7 | 7.0 | 0.00 | 0.00 | 0.00 | 41 | 944.6 |
| 20260504205912 | 74 | 232 | 0.9 | 6.1 | 0.00 | 0.00 | 0.00 | 40 | 944.6 |
| 20260504204912 | 74 | 227 | 3.5 | 7.0 | 0.00 | 0.00 | 0.00 | 39 | 944.6 |
| 20260504203912 | 75 | 0 | 0.0 | 5.2 | 0.00 | 0.00 | 0.00 | 39 | 944.6 |
| 20260504202513 | 73 | 0 | 0.0 | 7.0 | 0.00 | 0.00 | 0.00 | 41 | 944.6 |
| 20260504201513 | 74 | 0 | 0.0 | 4.3 | 0.00 | 0.00 | 0.00 | 40 | 944.6 |
| 20260504200513 | 72 | 205 | 0.9 | 8.7 | 0.00 | 0.00 | 0.00 | 41 | 944.6 |
| 20260504195513 | 72 | 225 | 5.2 | 10.4 | 0.00 | 0.00 | 0.00 | 42 | 944.6 |
| 20260504194116 | 72 | 217 | 1.7 | 8.7 | 0.00 | 0.00 | 0.00 | 42 | 944.6 |
| 20260504193116 | 73 | 0 | 0.0 | 6.1 | 0.00 | 0.00 | 0.00 | 41 | 944.6 |
| 20260504192116 | 72 | 204 | 4.3 | 8.7 | 0.00 | 0.00 | 0.00 | 43 | 944.6 |
| 20260504191116 | 71 | 189 | 0.9 | 8.7 | 0.00 | 0.00 | 0.00 | 41 | 944.6 |
| 20260504185720 | 71 | 0 | 0.0 | 8.7 | 0.00 | 0.00 | 0.00 | 44 | 944.6 |
| 20260504184719 | 71 | 205 | 4.3 | 9.6 | 0.00 | 0.00 | 0.00 | 45 | 944.6 |
| 20260504183719 | 72 | 0 | 0.0 | 4.3 | 0.00 | 0.00 | 0.00 | 41 | 944.6 |
| 20260504182719 | 72 | 205 | 2.6 | 6.1 | 0.00 | 0.00 | 0.00 | 43 | 944.6 |
| 20260504181322 | 71 | 0 | 0.0 | 7.8 | 0.00 | 0.00 | 0.00 | 45 | 944.6 |
| 20260504180322 | 71 | 0 | 0.0 | 11.3 | 0.00 | 0.00 | 0.00 | 44 | 944.6 |
| 20260504175322 | 70 | 240 | 4.3 | 10.4 | 0.00 | 0.00 | 0.00 | 43 | 944.6 |
| 20260504174322 | 69 | 228 | 0.9 | 7.8 | 0.00 | 0.00 | 0.00 | 47 | 944.6 |
| 20260504172933 | 69 | 242 | 4.3 | 12.2 | 0.00 | 0.00 | 0.00 | 43 | 944.6 |
| 20260504171933 | 67 | 229 | 0.9 | 7.0 | 0.00 | 0.00 | 0.00 | 44 | 944.6 |